Tracking 19572 objects as of 23-Feb-2019
HD Live streaming from Space Station
objects crossing your sky now

ARIANE 44L DEB

Track ARIANE 44L DEB now!


NORAD ID: 33590
Int'l Code: 1991-003T
Perigee: 586.0 km
Apogee: 30,561.6 km
Inclination: 7.3 °
Period: 539.2 minutes
Semi major axis: 21944 km
RCS: 0.0632 m2 (small)
Launch date: January 15, 1991
Source: France (FR)
Launch site: FRENCH GUIANA (FRGUI)

Note: This is SATELLITE DEBRIS
aabbcc
Your satellite tracking list
Your tracking list is empty




NASA's NSSDC Master Catalog

Two Line Element Set (TLE):
1 33590U 91003T   19053.67171898 +.00000064 +00000-0 +15931-2 0  9999
2 33590 007.2579 255.4484 6829775 067.4084 022.0276 02.67058489059133
Source of the keplerian elements: AFSPC